Simultaneous Nadir Overpasses (SNOs) Predictions

Prediction of SNOs between GOES-14 and NOAA-20 Satellite Orbit:

Table of predicted SNOs for the next 14.0 days since TLE Epoch: 2/28/2020
Index Date Time (GOES-14) GOES-14 Lat,Lon NOAA-20 Lat,Lon Distance(km) Time Diff (sec)
1 02/29/2020 08:24:15 0.07,-104.21 0.25,-105.05 95.74 80
2 03/01/2020 08:08:11 0.07,-104.21 -0.74,-100.51 420.78 80
3 03/02/2020 20:30:07 -0.08,-104.03 -0.48,-105.81 203.36 80
4 03/03/2020 20:08:43 -0.08,-104.02 0.51,-101.27 312.07 80
5 03/05/2020 08:30:32 0.09,-104.18 0.63,-106.55 270.31 80
6 03/06/2020 08:14:28 0.09,-104.18 -0.37,-102.02 245.98 80
7 03/07/2020 20:36:24 -0.10,-104.01 -0.85,-107.31 376.81 80
8 03/08/2020 20:15:00 -0.09,-104.00 0.21,-102.79 138.45 80
9 03/10/2020 08:36:49 0.10,-104.15 0.99,-108.06 445.78 80
10 03/11/2020 08:20:45 0.10,-104.15 -0.06,-103.54 70.68 80




NCC Satellite Simultaneous Nadir Overpasses (SNOs) Prediction Service
